Flag for Palestinian Territories Weather past 2 weeks in Nablus, West Bank, Palestinian Territories

70 °F

Partly sunny.

Feels Like: 70 °F
Forecast: 50 / 59 °F
Wind: 5 mph from West

Location: Ben Gurion International Airport

Current Time: Dec 1, 2015 at 12:26:43 PM

Latest Report: Dec 1, 2015 at 11:50 AM

Visibility: N/A

Pressure: 30.07 "Hg (28.26 "Hg at 534m altitude)

Humidity: 57%

Dew point: 54 °F

Location of NablusLocation

Historic Weather in Nablus — Graph


Nablus temperature yesterday

Maximum temperature yesterday: 72 °F (at 10:50 AM)
Minimum temperature yesterday: 57 °F (at 4:20 AM)
Average temperature yesterday: 64 °F

Past Weeks' High & Low Weather Summary

High81 °F (Nov 26, 11:20 AM)94% (Nov 16, 11:20 AM)30.18 "Hg (Nov 16, 11:20 AM)
Low55 °F (Nov 24, 6:20 AM)25% (Nov 25, 9:20 AM)29.74 "Hg (Nov 16, 11:50 AM)
Average67 °F62%30.02 "Hg
* Reported Nov 16 11:20 AM — Dec 1 11:20 AM, Nablus, Weather by CustomWeather, © 2015

Note: Actual official high and low records may vary slightly from our data, if they occured in-between our weather recording intervals... More about our weather records


Nablus weather history for previous 24 hours

Time TempWeatherWind HumidityBarometerVisibility
11:20 AM
Tue, Dec 1
68 °FLight rain. Partly sunny.5 mph64%30.07 "HgN/A
10:50 AM68 °FScattered clouds.7 mph69%30.09 "HgN/A
10:20 AM64 °FScattered clouds.9 mph78%30.09 "HgN/A
8:50 AM63 °FScattered clouds.6 mph83%30.09 "HgN/A
8:20 AM61 °FScattered clouds.7 mph88%30.09 "HgN/A
7:50 AM61 °FScattered clouds.7 mph88%30.09 "HgN/A
7:20 AM59 °FScattered clouds.7 mph94%30.07 "HgN/A
6:50 AM59 °FScattered clouds.7 mph94%30.07 "HgN/A
6:20 AM59 °FPassing clouds.5 mph94%30.07 "HgN/A
5:50 AM61 °FPassing clouds.6 mph88%30.04 "HgN/A
5:20 AM61 °FPassing clouds.7 mph88%30.04 "HgN/A
4:50 AM61 °FPassing clouds.6 mph88%30.04 "HgN/A
4:20 AM61 °FPassing clouds.6 mph88%30.01 "HgN/A
3:50 AM61 °FLight rain. Passing clouds.6 mph88%30.01 "HgN/A
3:20 AM61 °FPassing clouds.5 mph94%30.01 "HgN/A
2:50 AM61 °FPassing clouds.7 mph88%30.01 "HgN/A
1:50 AM61 °FPassing clouds.8 mph88%30.04 "HgN/A
1:20 AM61 °FPassing clouds.5 mph88%30.01 "HgN/A
12:50 AM59 °FRain. Passing clouds.5 mph94%30.01 "HgN/A
12:20 AM61 °FRain. Passing clouds.6 mph88%30.01 "HgN/A
11:50 PM
Mon, Nov 30
61 °FRain. Passing clouds.5 mph83%30.01 "HgN/A
11:20 PM61 °FRain. Passing clouds.6 mph88%30.01 "HgN/A
10:50 PM63 °FPassing clouds.7 mph83%30.01 "HgN/A
10:20 PM63 °FPassing clouds.5 mph83%30.01 "HgN/A
9:50 PM64 °FPassing clouds.5 mph83%30.01 "HgN/A
9:20 PM64 °FPassing clouds.3 mph78%30.01 "HgN/A
8:50 PM63 °FPassing clouds.5 mph88%30.01 "HgN/A
8:20 PM63 °FPassing clouds.6 mph88%30.01 "HgN/A
7:50 PM64 °FPassing clouds.8 mph83%30.01 "HgN/A
7:20 PM64 °FPassing clouds.7 mph78%30.01 "HgN/A
6:50 PM64 °FPassing clouds.6 mph83%30.01 "HgN/A
6:20 PM66 °FPassing clouds.6 mph78%30.01 "HgN/A
5:50 PM66 °FPassing clouds.5 mph78%30.01 "HgN/A
5:20 PM66 °FPassing clouds.5 mph78%30.01 "HgN/A
4:50 PM66 °FPassing clouds.3 mph78%30.01 "HgN/A
4:20 PM66 °FScattered clouds.3 mph78%30.01 "HgN/A
3:50 PM68 °FScattered clouds.5 mph78%29.98 "HgN/A
3:20 PM66 °FScattered clouds.5 mph83%29.98 "HgN/A
2:50 PM66 °FScattered clouds.7 mph83%30.01 "HgN/A
2:20 PM64 °FScattered clouds.2 mph94%29.98 "HgN/A
1:50 PM63 °FRain. Partly sunny.2 mph94%29.98 "Hg4 mi
1:20 PM72 °FPartly sunny.10 mph57%29.98 "HgN/A
12:50 PM72 °FPartly sunny.12 mph57%29.98 "HgN/A
12:20 PM72 °FPartly sunny.8 mph53%30.01 "HgN/A
Weather by CustomWeather, © 2015

See weather overviewHow to use our weather pages